www.pogodaiklimat.ru

Погода и климат >> Архив погоды >> Россия >> Камчатский край >> Остров Беринга


АРХИВ ПОГОДЫ на Острове Беринга

Время (UTC), дата Ветер
(напр.,м/с)
 
Видим.   Явления Облачность Т
(С)
Тd
(С)
f
(%)
Тe
(С)
Тes
(С)
Комфортность P
(гПа)
Po
(гПа)
Тmin
(С)
Tmax
(С)
R
(мм)
R24
(мм)
S
(см)
21 9.06 В 6
{10}
20 км 10/10 600 м
[Sc]
+6.5 +4.3 86 +2 +2 1019.6 1017.4 +5.2 2
00 10.06 В 7-10
{12}
20 км 10/10 600 м
[Sc]
+6.7 +4.3 85 +2 +2 1018.9 1016.7
03 10.06 В 6-10
{12}
20 км 9/9 600 м
[Sc]
+7.9 +5.1 82 +4 +4 1018.1 1015.9
06 10.06 В 7-11
{12}
20 км 10/10 600 м
[Sc]
+6.6 +4.6 87 +2 +2 1018.0 1015.8
09 10.06 В 5
{11}
20 км 10/10 600 м
[Sc]
+5.7 +4.7 93 +1 +1 1017.9 1015.7 +7.9
12 10.06 В 5 4000 м дымка 10/10 300 м
[St]
+5.5 +4.7 95 +1 +1 1017.3 1015.1
15 10.06 СВ 5
{10}
20 км 10/10 600 м
[Sc]
+5.2 +4.3 94 0 0 1016.4 1014.2
18 10.06 СВ 5
{12}
20 км 10/10 600 м
[Sc]
+5.4 +4.6 95 +1 +1 1015.9 1013.7
21 10.06 СВ 9-13
{14}
4000 м слаб. морось 10/10 300 м
[St]
+5.7 +4.5 92 -0 -0 1015.7 1013.5 +4.9 0.1
00 11.06 СВ 9-16
{16}
20 км {морось} 10/10 100 м
[St]
+6.0 +5.0 93 0 0 1014.9 1012.7
03 11.06 СВ 9-14
{17}
10 км слаб. морось 10/10 100 м
[St]
+6.0 +5.2 95 0 0 1013.8 1011.6
06 11.06 СВ 7-10
{16}
10 км слаб. морось 10/10 100 м
[St]
+6.0 +5.1 94 +1 +1 1013.8 1011.6
09 11.06 СВ 8-12
{15}
10 км слаб. ливневой дождь {морось} 10/10 300 м
[Cb cap]
+5.7 +4.7 93 -0 -0 1014.4 1012.2 +7.2 0.4
12 11.06 СВ 8-12
{15}
10 км слаб. ливневой дождь {морось} 10/10 300 м
[Cb cap]
+5.1 +4.2 94 -1 -1 1014.3 1012.1
15 11.06 СВ 9-14
{15}
10 км слаб. ливневой дождь 10/10 300 м
[Cb cap]
+4.9 +3.8 93 -1 -1 1014.3 1012.1
18 11.06 СВ 9-14
{15}
10 км слаб. ливневой дождь 10/10 300 м
[Cb cap]
+5.2 +4.6 96 -1 -1 1015.0 1012.7
21 11.06 СВ 11-15
{16}
20 км {ливн. осадки} 10/10 600 м
[Sc]
+6.0 +5.0 93 -1 -1 1016.1 1013.9 +4.7 0.4 0
00 12.06 СВ 10-14
{16}
20 км {ливн. осадки} 10/10 600 м
[Sc]
+6.6 +5.1 90 +1 +1 1016.3 1014.1
03 12.06 С 9-13
{14}
20 км 9/9 600 м
[Cu Sc]
+7.3 +4.6 83 +2 +2 1016.6 1014.4
06 12.06 С 8-11
{13}
20 км 9/9 600 м
[Cu Sc]
+6.4 +4.5 88 +1 +1 1017.6 1015.4
09 12.06 С 5
{11}
20 км 9/9 600 м
[Cu Sc]
+5.5 +4.5 93 +1 +1 1018.9 1016.7 +7.7
12 12.06 СВ 2 20 км {ливн. осадки} 9/9 600 м
[Cb cap]
+5.0 +4.1 94 +2 +2 1019.3 1017.0
15 12.06 СВ 1 10 км слаб. ливневой дождь 10/10 600 м
[Cb cap]
+4.2 +3.8 97 +3 +3 1019.4 1017.1
18 12.06 С 2 20 км {ливн. осадки} 10/10 600 м
[Sc]
+4.5 +2.9 89 +2 +2 1020.0 1017.8
21 12.06 СВ 2 20 км 10/10 600 м
[Sc]
+5.1 +3.1 87 +2 +2 1020.6 1018.3 +4.1 0.3 0
00 13.06 В 2 20 км 10/10 600 м
[Sc]
+6.7 +3.9 82 +4 +4 1020.4 1018.2
03 13.06 СЗ 4 20 км 10/10 600 м
[Sc]
+6.4 +4.6 88 +3 +3 1020.4 1018.2
06 13.06 З 5 20 км 10/10 600 м
[Sc]
+6.4 +4.6 88 +2 +2 1019.5 1017.3
09 13.06 З 2 20 км 10/10 600 м
[Sc]
+6.0 +3.7 85 +4 +4 1019.8 1017.6 +6.8
12 13.06 ЮЗ 3 20 км 10/10 600 м
[Sc]
+5.9 +3.1 82 +3 +3 1019.8 1017.6
15 13.06 штиль 0 20 км 10/10 600 м
[Sc]
+5.4 +2.7 83 +4 +4 1018.8 1016.6
18 13.06 ЮЗ 2 20 км 10/10 600 м
[Sc]
+5.2 +2.7 84 +3 +3 1018.9 1016.7
21 13.06 Ю 2 20 км 10/10 600 м
[Sc]
+5.7 +3.5 86 +3 +3 1018.9 1016.7 +5.1
00 14.06 З 2 20 км 10/10 600 м
[Sc]
+6.3 +3.5 82 +4 +4 1018.6 1016.4
03 14.06 З 3 20 км 10/10 600 м
[Sc]
+6.3 +3.5 82 +3 +3 1018.3 1016.1
06 14.06 З 2 20 км 10/10 600 м
[Sc]
+6.3 +2.9 79 +4 +4 1018.2 1016.0
09 14.06 В 1 20 км 10/10 600 м
[Sc]
+5.8 +3.8 87 +5 +5 1018.8 1016.6 +6.5
12 14.06 ЮВ 1 20 км 10/10 600 м
[Sc]
+5.5 +4.1 91 +4 +4 1019.5 1017.3
15 14.06 З 5 20 км 10/10 600 м
[Sc]
+5.9 +3.3 83 +2 +2 1019.5 1017.3
18 14.06 З 2 20 км 10/10 600 м
[Sc]
+5.6 +2.8 82 +3 +3 1020.8 1018.6
21 14.06 ЮЗ 2 20 км 10/10 600 м
[Sc]
+6.2 +2.8 79 +4 +4 1021.8 1019.5 +5.2
00 15.06 ЮЗ 3 20 км 10/10 600 м
[Sc]
+6.7 +3.4 79 +4 +4 1022.9 1020.6
03 15.06 ЮЗ 3 20 км 9/9 600 м
[Sc]
+7.3 +3.7 78 +5 +6 1023.6 1021.4
06 15.06 ЮЗ 3 20 км 9/9 600 м
[Sc]
+7.3 +3.1 75 +5 +5 1023.8 1021.6
09 15.06 ЮЗ 3 20 км 10/10 600 м
[Sc]
+6.4 +2.8 78 +3 +3 1025.1 1022.9 +7.8
12 15.06 Ю 2 20 км 9/9 600 м
[Sc]
+5.7 +2.3 79 +3 +3 1025.8 1023.6
15 15.06 ЮЗ 3 20 км 10/10 600 м
[Sc]
+5.7 +2.8 82 +2 +2 1026.4 1024.2
18 15.06 Ю 3 20 км 10/10 600 м
[Sc]
+6.0 +3.8 86 +3 +3 1026.9 1024.7
21 15.06 ЮЗ 3 20 км 10/10 600 м
[Sc]
+6.1 +3.9 86 +3 +3 1027.6 1025.3 +5.6
00 16.06 Ю 5 20 км 10/10 600 м
[Sc]
+6.6 +4.4 86 +2 +2 1027.7 1025.5
03 16.06 Ю 6 20 км 10/10 600 м
[Sc]
+6.9 +4.7 86 +2 +2 1027.5 1025.3
06 16.06 Ю 6 20 км 9/9 600 м
[Sc]
+6.2 +4.8 91 +1 +2 1027.1 1024.9
09 16.06 Ю 7 20 км 10/10 600 м
[Sc]
+6.0 +5.0 93 +1 +1 1027.1 1024.9 +7.1
12 16.06 Ю 7-10
{10}
20 км 10/10 600 м
[Sc]
+5.6 +5.1 97 0 0 1026.7 1024.5
15 16.06 Ю 8-10
{11}
20 км 10/10 600 м
[Sc]
+5.3 +5.0 98 -1 -1 1025.8 1023.5
18 16.06 Ю 7-10
{11}
20 км 10/10 600 м
[Sc]
+5.7 +5.1 96 0 0 1025.7 1023.4

 

Местоположение метеостанции Остров Беринга (Камчатский край, Россия): широта 55.20 долгота 165.90 высота над уровнем моря 18 м.

В архиве по умолчанию представлена погода на Острове Беринга за последнюю неделю. Архивные данные за месяц целиком и за предыдущие месяцы, начиная с января 2011 года, Вы можете получить, выбрав интересующий диапазон дат из раскрывающегося списка и нажав кнопку "Ввод!".


*Определитесь, кто Вы:
робот инопланетянин человек

Внимание! Время в таблицах - всемирное. Для получения местного времени необходимо прибавить поправку, которая равна 12 ч.

Смотрите также архив погоды в соседних городах и на ближайших метеорологических станциях:

Погода на Мысе Африка (Камчатский край, Россия) (196 км)
Погода в Усть-Камчатске (Камчатский край, Россия) (230 км)
Погода на Мысе Озерном (Камчатский край, Россия) (319 км)
Погода в Ключах (Камчатский край, Россия) (343 км)
Погода в Козыревске (Камчатский край, Россия) (394 км)
Погода в Семячике (Камчатский край, Россия) (404 км)
Погода в Долиновке (Камчатский край, Россия) (438 км)
Погода в Эссо (Камчатский край, Россия) (460 км)
Погода в Мильково (Камчатский край, Россия) (476 км)
Погода в Оссоре (Камчатский край, Россия) (481 км)

Пояснения к столбцам:

Ветер - указаны скорость ветра в м/с - средняя за 10 мин, порывы в срок и между сроками (в фигурных скобках) и направление, откуда дует ветер: С - северный, СВ - северо-восточный, В - восточный, ЮВ - юго-восточный, Ю - южный, ЮЗ - юго-западный, З - западный, СЗ - северо-западный.
Видимость - горизонтальная дальность видимости в метрах или километрах. При видимости от 1 до 10 км при отсутствии осадков обычно наблюдается дымка, при ухудшении видимости до 1 км и менее - туман. В сухую погоду видимость может ухудшаться дымом, пылью или мглою.
Явления - указаны атмосферные явления, наблюдавшиеся в срок или в последний час перед сроком; фигурными скобками обозначены явления, наблюдавшиеся между сроками (за 1-3 часа до срока); квадратными скобками обозначены град или гололедные отложения с указанием их диаметра в мм.
Облачность - указаны через наклонную черту общая и нижняя облачность в баллах и высота нижней границы облаков в метрах; квадратными скобками обозначены формы облаков: Ci - перистые, Cs - перисто-слоистые, Cc - перисто-кучевые, Ac - высококучевые, As - высокослоистые, Sc - слоисто-кучевые, Ns - слоисто-дождевые, Cu - кучевые, Cb - кучево-дождевые. Подробнее классификацию облаков см. в Атласе облаков (PDF).
T - Температура воздуха - температура, измеренная на высоте 2 м над землей.
Td - Температура точки росы - температура, при понижении до которой содержащийся в воздухе водяной пар достигнет насыщения.
f - Относительная влажность воздуха - влажноcть воздуха, измеренная на высоте 2 м над землей.
Te - Эффективная температура - температура, которую ощущает одетый по сезону человек в тени. Характеристика душности погоды. При расчете учитывается влияние влажности воздуха и скорости ветра на теплоощущения человека.
Tes - Эффективная температура на солнце - температура, которую ощущает человек, с поправкой на солнечный нагрев. Характеристика знойности погоды. Зависит от высоты солнца над горизонтом, облачности и скорости ветра. Ночью, в пасмурную погоду, а также при ветре 12 м/с и более поправка равна нулю.
P - Атмосферное давление - приведенное к уровню моря атмосферное давление.
Po - Атмосферное давление - измеренное на уровне метеостанции атмосферное давление.
Tmin - Минимальная температура - минимум температуры воздуха на высоте 2 м над землей.
Tmax - Максимальная температура - максимум температуры воздуха на высоте 2 м над землей.
R - Количество осадков - Количество выпавших осадков за период времени, мм. При наведении курсора мыши на число - период времени, за который выпало указанное количество осадков.
R24 - Количество осадков - Количество выпавших осадков за 24 часа, мм.
S - Снежный покров - Высота снежного покрова, см. При наведении курсора мыши на число - состояние снежного покрова и степень покрытия местности в баллах.